Location: Tr�vern
(48.0333°N, 4.6000°W)
Time: 18:58:21
(UTC+00:00)

Cosmos 1943 - Pass Details

Date: 14 July 2020
Orbit: 835 x 848 km, 71.0° (Epoch: 11 August)

Event Time Altitude Azimuth Distance (km) Brightness Sun altitude
Exits shadow 00:19:38 23° 231° (SW) 1,729 4.5 -20.3°
Maximum altitude 00:23:07 57° 302° (WNW) 989 3.7 -20.3°
Drops below altitude 10° 00:28:42 10° 22° (NNE) 2,468 6.6 -20.3°
Sets 00:31:12 0° 26° (NNE) 3,404 7.5 -20.3°
